Time,TemperatureF,DewpointF,PressureIn,WindDirection,WindDirectionDegrees,WindSpeedMPH,WindSpeedGustMPH,Humidity,HourlyPrecipIn,Conditions,Clouds,dailyrainin,SoftwareType,DateUTC
2013-02-26 00:12:00,69.0,57.0,29.81,NE,53,0.0,0.0,65,0.00,,,0.00,weatherlink.com 1.10,2013-02-26 05:12:00,
2013-02-26 00:27:00,68.9,57.0,29.81,NE,53,0.0,1.0,65,0.00,,,0.00,weatherlink.com 1.10,2013-02-26 05:27:00,
2013-02-26 00:42:00,68.8,56.0,29.80,ESE,109,1.0,4.0,65,0.00,,,0.00,weatherlink.com 1.10,2013-02-26 05:42:00,
2013-02-26 00:57:00,68.8,56.0,29.80,ESE,109,3.0,4.0,65,0.00,,,0.00,weatherlink.com 1.10,2013-02-26 05:57:00,
2013-02-26 01:12:00,69.1,58.0,29.80,ESE,114,2.0,5.0,67,0.00,,,0.00,weatherlink.com 1.10,2013-02-26 06:12:00,
2013-02-26 01:27:00,69.4,58.0,29.80,SSE,151,0.0,3.0,67,0.00,,,0.00,weatherlink.com 1.10,2013-02-26 06:27:00,
2013-02-26 01:42:00,69.6,58.0,29.80,SSE,155,0.0,0.0,67,0.00,,,0.00,weatherlink.com 1.10,2013-02-26 06:42:00,
2013-02-26 01:57:00,70.0,61.0,29.79,SSE,147,3.0,5.0,72,0.00,,,0.00,weatherlink.com 1.10,2013-02-26 06:57:00,
2013-02-26 02:12:00,70.6,62.0,29.78,South,171,2.0,5.0,75,0.00,,,0.00,weatherlink.com 1.10,2013-02-26 07:12:00,
2013-02-26 02:27:00,71.2,64.0,29.77,SSE,151,5.0,8.0,78,0.00,,,0.00,weatherlink.com 1.10,2013-02-26 07:27:00,
2013-02-26 02:42:00,71.0,64.0,29.77,SSE,153,5.0,7.0,78,0.00,,,0.00,weatherlink.com 1.10,2013-02-26 07:42:00,
2013-02-26 02:57:00,70.8,63.0,29.77,SSE,161,5.0,6.0,77,0.00,,,0.00,weatherlink.com 1.10,2013-02-26 07:57:00,
2013-02-26 03:12:00,70.8,64.0,29.76,SSE,155,7.0,11.0,78,0.00,,,0.00,weatherlink.com 1.10,2013-02-26 08:12:00,
2013-02-26 03:27:00,70.8,64.0,29.76,SSE,150,7.0,13.0,78,0.00,,,0.00,weatherlink.com 1.10,2013-02-26 08:27:00,
2013-02-26 03:42:00,71.1,64.0,29.74,SSE,159,15.0,15.0,78,0.00,,,0.00,weatherlink.com 1.10,2013-02-26 08:42:00,
2013-02-26 03:57:00,71.5,64.0,29.74,SSE,157,9.0,14.0,78,0.00,,,0.00,weatherlink.com 1.10,2013-02-26 08:57:00,
2013-02-26 04:12:00,71.5,64.0,29.74,SSE,163,13.0,16.0,77,0.00,,,0.00,weatherlink.com 1.10,2013-02-26 09:12:00,
2013-02-26 04:27:00,71.5,64.0,29.75,SSE,163,13.0,14.0,77,0.00,,,0.00,weatherlink.com 1.10,2013-02-26 09:27:00,
2013-02-26 04:42:00,71.4,64.0,29.75,SSE,157,7.0,14.0,78,0.00,,,0.00,weatherlink.com 1.10,2013-02-26 09:42:00,
2013-02-26 04:57:00,71.5,64.0,29.76,SSE,155,8.0,14.0,78,0.00,,,0.00,weatherlink.com 1.10,2013-02-26 09:57:00,
2013-02-26 05:12:00,71.5,64.0,29.75,SSE,163,10.0,12.0,78,0.00,,,0.00,weatherlink.com 1.10,2013-02-26 10:12:00,
2013-02-26 05:27:00,71.5,65.0,29.75,SSE,152,11.0,15.0,79,0.00,,,0.00,weatherlink.com 1.10,2013-02-26 10:27:00,
2013-02-26 05:42:00,71.5,65.0,29.75,SSE,159,11.0,18.0,79,0.00,,,0.00,weatherlink.com 1.10,2013-02-26 10:42:00,
2013-02-26 05:57:00,71.8,65.0,29.75,SSE,155,7.0,18.0,79,0.00,,,0.00,weatherlink.com 1.10,2013-02-26 10:57:00,
2013-02-26 06:12:00,72.2,65.0,29.75,SSE,166,13.0,16.0,79,0.00,,,0.00,weatherlink.com 1.10,2013-02-26 11:12:00,
2013-02-26 06:27:00,72.2,65.0,29.75,SSE,165,11.0,18.0,79,0.00,,,0.00,weatherlink.com 1.10,2013-02-26 11:27:00,
2013-02-26 06:42:00,71.9,65.0,29.76,SSE,168,8.0,13.0,78,0.00,,,0.00,weatherlink.com 1.10,2013-02-26 11:42:00,
2013-02-26 06:57:00,71.9,64.0,29.76,South,180,7.0,14.0,77,0.00,,,0.00,weatherlink.com 1.10,2013-02-26 11:57:00,
2013-02-26 07:12:00,71.9,64.0,29.76,South,176,7.0,14.0,76,0.00,,,0.00,weatherlink.com 1.10,2013-02-26 12:12:00,
2013-02-26 07:27:00,72.0,64.0,29.75,SSE,161,12.0,15.0,75,0.00,,,0.00,weatherlink.com 1.10,2013-02-26 12:27:00,
2013-02-26 07:42:00,72.3,64.0,29.74,SSE,167,7.0,17.0,75,0.00,,,0.00,weatherlink.com 1.10,2013-02-26 12:42:00,
2013-02-26 07:57:00,72.3,64.0,29.75,SSE,167,6.0,18.0,74,0.00,,,0.00,weatherlink.com 1.10,2013-02-26 12:57:00,
2013-02-26 08:12:00,72.4,64.0,29.76,South,170,9.0,16.0,74,0.00,,,0.00,weatherlink.com 1.10,2013-02-26 13:12:00,
2013-02-26 08:27:00,72.7,64.0,29.78,South,182,13.0,14.0,75,0.00,,,0.00,weatherlink.com 1.10,2013-02-26 13:27:00,
2013-02-26 08:42:00,72.9,65.0,29.78,South,175,6.0,15.0,75,0.00,,,0.00,weatherlink.com 1.10,2013-02-26 13:42:00,
2013-02-26 08:57:00,73.0,65.0,29.77,South,171,10.0,15.0,75,0.00,,,0.00,weatherlink.com 1.10,2013-02-26 13:57:00,
2013-02-26 09:13:00,72.9,64.0,29.77,SSE,163,12.0,15.0,74,0.01,,,0.01,weatherlink.com 1.10,2013-02-26 14:13:00,
2013-02-26 09:27:00,73.0,64.0,29.77,South,173,12.0,15.0,74,0.01,,,0.01,weatherlink.com 1.10,2013-02-26 14:27:00,
2013-02-26 09:42:00,73.2,65.0,29.79,SSW,192,11.0,19.0,75,0.01,,,0.01,weatherlink.com 1.10,2013-02-26 14:42:00,
2013-02-26 09:57:00,72.6,63.0,29.80,South,190,14.0,18.0,71,0.03,,,0.03,weatherlink.com 1.10,2013-02-26 14:57:00,
2013-02-26 10:12:00,72.5,62.0,29.80,SSW,194,11.0,14.0,69,0.03,,,0.04,weatherlink.com 1.10,2013-02-26 15:12:00,
2013-02-26 10:28:00,72.6,62.0,29.80,SSW,193,7.0,13.0,70,0.03,,,0.04,weatherlink.com 1.10,2013-02-26 15:28:00,
2013-02-26 10:43:00,72.5,61.0,29.81,South,180,4.0,13.0,68,0.04,,,0.05,weatherlink.com 1.10,2013-02-26 15:43:00,
2013-02-26 10:58:00,72.4,61.0,29.81,SSW,200,8.0,14.0,67,0.02,,,0.05,weatherlink.com 1.10,2013-02-26 15:58:00,
2013-02-26 11:13:00,71.9,59.0,29.82,WSW,258,7.0,10.0,65,0.01,,,0.05,weatherlink.com 1.10,2013-02-26 16:13:00,
2013-02-26 11:28:00,71.8,61.0,29.81,WSW,240,8.0,18.0,68,0.03,,,0.07,weatherlink.com 1.10,2013-02-26 16:28:00,
2013-02-26 11:43:00,71.8,60.0,29.82,WSW,250,8.0,15.0,66,0.02,,,0.07,weatherlink.com 1.10,2013-02-26 16:43:00,
2013-02-26 11:58:00,71.5,59.0,29.81,WSW,258,11.0,21.0,65,0.02,,,0.07,weatherlink.com 1.10,2013-02-26 16:58:00,
2013-02-26 12:13:00,71.2,60.0,29.81,WSW,252,22.0,23.0,68,0.06,,,0.11,weatherlink.com 1.10,2013-02-26 17:13:00,
2013-02-26 12:28:00,69.4,61.0,29.82,WSW,255,11.0,30.0,74,0.12,,,0.19,weatherlink.com 1.10,2013-02-26 17:28:00,
2013-02-26 12:43:00,68.6,62.0,29.82,WSW,248,12.0,21.0,80,0.12,,,0.19,weatherlink.com 1.10,2013-02-26 17:43:00,
2013-02-26 12:58:00,68.4,62.0,29.80,WSW,238,11.0,17.0,81,0.11,,,0.19,weatherlink.com 1.10,2013-02-26 17:58:00,
2013-02-26 13:13:00,68.8,62.0,29.77,SSW,198,17.0,19.0,78,0.08,,,0.19,weatherlink.com 1.10,2013-02-26 18:13:00,
2013-02-26 13:28:00,68.9,62.0,29.77,SSW,205,15.0,18.0,79,0.00,,,0.19,weatherlink.com 1.10,2013-02-26 18:28:00,
2013-02-26 13:43:00,69.2,62.0,29.77,SW,223,14.0,18.0,77,0.00,,,0.19,weatherlink.com 1.10,2013-02-26 18:43:00,
2013-02-26 13:58:00,69.6,62.0,29.77,WSW,248,13.0,17.0,77,0.00,,,0.19,weatherlink.com 1.10,2013-02-26 18:58:00,
2013-02-26 14:13:00,70.4,64.0,29.77,WSW,237,15.0,17.0,79,0.00,,,0.19,weatherlink.com 1.10,2013-02-26 19:13:00,
2013-02-26 14:28:00,71.3,65.0,29.78,WSW,240,19.0,20.0,79,0.00,,,0.19,weatherlink.com 1.10,2013-02-26 19:28:00,
2013-02-26 14:43:00,72.0,66.0,29.78,WSW,238,10.0,18.0,80,0.00,,,0.19,weatherlink.com 1.10,2013-02-26 19:43:00,
2013-02-26 14:58:00,72.4,66.0,29.77,SW,230,12.0,16.0,80,0.00,,,0.19,weatherlink.com 1.10,2013-02-26 19:58:00,
2013-02-26 15:13:00,72.5,66.0,29.78,WSW,239,8.0,12.0,80,0.00,,,0.19,weatherlink.com 1.10,2013-02-26 20:13:00,
2013-02-26 15:28:00,74.0,64.0,29.78,West,264,11.0,14.0,72,0.00,,,0.19,weatherlink.com 1.10,2013-02-26 20:28:00,
2013-02-26 15:43:00,74.0,64.0,29.78,West,262,11.0,14.0,70,0.00,,,0.19,weatherlink.com 1.10,2013-02-26 20:43:00,
2013-02-26 15:58:00,73.8,62.0,29.77,West,270,8.0,16.0,66,0.00,,,0.19,weatherlink.com 1.10,2013-02-26 20:58:00,
2013-02-26 16:13:00,73.7,60.0,29.77,WSW,257,10.0,20.0,62,0.00,,,0.19,weatherlink.com 1.10,2013-02-26 21:13:00,
2013-02-26 16:28:00,73.4,61.0,29.79,WSW,250,13.0,20.0,65,0.00,,,0.19,weatherlink.com 1.10,2013-02-26 21:28:00,
2013-02-26 16:43:00,73.1,61.0,29.78,WSW,254,14.0,17.0,67,0.00,,,0.19,weatherlink.com 1.10,2013-02-26 21:43:00,
2013-02-26 16:58:00,72.8,61.0,29.79,West,259,15.0,19.0,66,0.00,,,0.19,weatherlink.com 1.10,2013-02-26 21:58:00,
2013-02-26 17:13:00,72.1,61.0,29.79,West,261,11.0,18.0,69,0.00,,,0.19,weatherlink.com 1.10,2013-02-26 22:13:00,
2013-02-26 17:28:00,71.4,62.0,29.79,West,281,8.0,16.0,71,0.00,,,0.19,weatherlink.com 1.10,2013-02-26 22:28:00,
2013-02-26 17:43:00,71.0,62.0,29.80,WSW,256,9.0,17.0,72,0.00,,,0.19,weatherlink.com 1.10,2013-02-26 22:43:00,
2013-02-26 17:58:00,70.8,61.0,29.80,West,271,12.0,17.0,72,0.00,,,0.19,weatherlink.com 1.10,2013-02-26 22:58:00,
2013-02-26 18:13:00,70.6,62.0,29.80,WSW,253,11.0,16.0,73,0.00,,,0.19,weatherlink.com 1.10,2013-02-26 23:13:00,
2013-02-26 18:28:00,70.4,61.0,29.80,WSW,250,13.0,19.0,71,0.00,,,0.19,weatherlink.com 1.10,2013-02-26 23:28:00,
2013-02-26 18:43:00,70.2,62.0,29.81,WSW,257,11.0,15.0,76,0.00,,,0.19,weatherlink.com 1.10,2013-02-26 23:43:00,
2013-02-26 18:58:00,69.9,62.0,29.82,WSW,244,9.0,12.0,76,0.00,,,0.19,weatherlink.com 1.10,2013-02-26 23:58:00,
2013-02-26 19:13:00,69.8,62.0,29.82,WSW,242,10.0,13.0,76,0.00,,,0.19,weatherlink.com 1.10,2013-02-27 00:13:00,
2013-02-26 19:28:00,69.5,62.0,29.82,WSW,246,10.0,14.0,76,0.00,,,0.19,weatherlink.com 1.10,2013-02-27 00:28:00,
2013-02-26 19:43:00,69.3,62.0,29.83,WSW,239,8.0,11.0,78,0.00,,,0.19,weatherlink.com 1.10,2013-02-27 00:43:00,
2013-02-26 19:58:00,69.2,62.0,29.83,WSW,244,12.0,14.0,78,0.00,,,0.19,weatherlink.com 1.10,2013-02-27 00:58:00,
2013-02-26 20:13:00,68.9,62.0,29.83,WSW,250,10.0,14.0,78,0.00,,,0.19,weatherlink.com 1.10,2013-02-27 01:13:00,
2013-02-26 20:28:00,68.6,62.0,29.83,WSW,253,12.0,14.0,79,0.00,,,0.19,weatherlink.com 1.10,2013-02-27 01:28:00,
2013-02-26 20:43:00,68.5,62.0,29.83,WSW,244,9.0,11.0,79,0.00,,,0.19,weatherlink.com 1.10,2013-02-27 01:43:00,
2013-02-26 20:58:00,68.3,62.0,29.84,WSW,244,8.0,12.0,79,0.00,,,0.19,weatherlink.com 1.10,2013-02-27 01:58:00,
2013-02-26 21:13:00,68.0,62.0,29.84,WSW,251,11.0,13.0,80,0.00,,,0.19,weatherlink.com 1.10,2013-02-27 02:13:00,
2013-02-26 21:28:00,68.0,62.0,29.84,WSW,248,10.0,14.0,80,0.00,,,0.19,weatherlink.com 1.10,2013-02-27 02:28:00,
2013-02-26 21:43:00,67.9,62.0,29.85,WSW,251,9.0,13.0,80,0.00,,,0.19,weatherlink.com 1.10,2013-02-27 02:43:00,
2013-02-26 21:58:00,67.3,61.0,29.86,WSW,250,8.0,10.0,80,0.00,,,0.19,weatherlink.com 1.10,2013-02-27 02:58:00,
2013-02-26 22:13:00,67.1,61.0,29.87,West,261,10.0,13.0,80,0.00,,,0.19,weatherlink.com 1.10,2013-02-27 03:13:00,
2013-02-26 22:28:00,66.7,60.0,29.87,WSW,254,10.0,14.0,79,0.00,,,0.19,weatherlink.com 1.10,2013-02-27 03:28:00,
2013-02-26 22:43:00,66.3,59.0,29.88,WSW,247,9.0,12.0,78,0.00,,,0.19,weatherlink.com 1.10,2013-02-27 03:43:00,
2013-02-26 22:58:00,66.3,59.0,29.88,WSW,249,10.0,12.0,78,0.00,,,0.19,weatherlink.com 1.10,2013-02-27 03:58:00,
2013-02-26 23:13:00,65.9,59.0,29.88,WSW,252,8.0,12.0,77,0.00,,,0.19,weatherlink.com 1.10,2013-02-27 04:13:00,
2013-02-26 23:28:00,65.6,59.0,29.88,WSW,252,10.0,13.0,78,0.00,,,0.19,weatherlink.com 1.10,2013-02-27 04:28:00,
2013-02-26 23:43:00,65.6,59.0,29.88,West,259,9.0,12.0,78,0.00,,,0.19,weatherlink.com 1.10,2013-02-27 04:43:00,
2013-02-26 23:58:00,65.5,59.0,29.88,West,268,11.0,13.0,79,0.00,,,0.19,weatherlink.com 1.10,2013-02-27 04:58:00,